Hourly Weather Dzyarzhynsk

Today, 9 August, Sunday

Time Temperature Precipitation Wind Pressure Humidity
00:00 +19°C° 0 mm 1 mps 747 mmHg 88%
01:00 +19°C° 0 mm 1 mps 747 mmHg 89%
02:00 +19°C° 0 mm 1 mps 747 mmHg 90%
03:00 +18°C° 0 mm 1 mps 746 mmHg 91%
04:00 +18°C° 0 mm 1 mps 746 mmHg 91%
05:00 +18°C° 0 mm 1 mps 746 mmHg 91%
06:00 +19°C° 0 mm 1 mps 746 mmHg 86%
07:00 +21°C° 0 mm 1 mps 746 mmHg 80%
08:00 +23°C° 0 mm 1 mps 746 mmHg 74%
09:00 +24°C° 0 mm 1 mps 746 mmHg 69%
10:00 +25°C° 0 mm 1 mps 746 mmHg 64%
11:00 +26°C° 0 mm 1 mps 746 mmHg 60%
12:00 +27°C° 0.2 mm 1 mps 746 mmHg 59%
13:00 +27°C° 0.2 mm 1 mps 746 mmHg 58%
14:00 +27°C° 0.2 mm 1 mps 745 mmHg 57%
15:00 +27°C° 0.9 mm 2 mps 745 mmHg 61%
16:00 +26°C° 0.9 mm 2 mps 745 mmHg 65%
17:00 +26°C° 0.9 mm 2 mps 744 mmHg 70%
18:00 +24°C° 0.4 mm 2 mps 744 mmHg 75%
19:00 +23°C° 0.4 mm 1 mps 744 mmHg 80%
20:00 +21°C° 0.4 mm 1 mps 744 mmHg 85%
21:00 +21°C° 0 mm 1 mps 744 mmHg 86%
22:00 +20°C° 0 mm 1 mps 744 mmHg 88%
23:00 +19°C° 0 mm 1 mps 744 mmHg 89%

Tomorrow, 10 August, Monday

Time Temperature Precipitation Wind Pressure Humidity
00:00 +19°C° 0.1 mm 1 mps 744 mmHg 90%
01:00 +19°C° 0.1 mm 1 mps 744 mmHg 90%
02:00 +19°C° 0.1 mm 1 mps 744 mmHg 91%
03:00 +18°C° 0 mm 1 mps 744 mmHg 91%
04:00 +18°C° 0 mm 1 mps 744 mmHg 92%
05:00 +18°C° 0 mm 1 mps 744 mmHg 92%
06:00 +19°C° 0 mm 1 mps 744 mmHg 88%
07:00 +21°C° 0 mm 1 mps 744 mmHg 84%
08:00 +21°C° 0 mm 2 mps 744 mmHg 79%
09:00 +24°C° 0.2 mm 2 mps 744 mmHg 74%
10:00 +25°C° 0.2 mm 2 mps 745 mmHg 68%
11:00 +26°C° 0.2 mm 2 mps 745 mmHg 62%
12:00 +27°C° 0.2 mm 2 mps 744 mmHg 59%
13:00 +27°C° 0.2 mm 2 mps 744 mmHg 56%
14:00 +28°C° 0.2 mm 2 mps 744 mmHg 52%
15:00 +28°C° 0.1 mm 2 mps 744 mmHg 54%
16:00 +28°C° 0.1 mm 2 mps 744 mmHg 56%
17:00 +28°C° 0.1 mm 2 mps 743 mmHg 57%
18:00 +25°C° 0.5 mm 2 mps 743 mmHg 65%
19:00 +23°C° 0.5 mm 2 mps 743 mmHg 73%
20:00 +20°C° 0.5 mm 3 mps 743 mmHg 81%
21:00 +20°C° 0.1 mm 2 mps 744 mmHg 83%
22:00 +19°C° 0.1 mm 2 mps 744 mmHg 84%
23:00 +18°C° 0.1 mm 2 mps 744 mmHg 86%

Day after tomorrow, 11 August, Tuesday

Time Temperature Precipitation Wind Pressure Humidity
00:00 +18°C° 0 mm 2 mps 744 mmHg 87%
01:00 +17°C° 0 mm 2 mps 744 mmHg 87%
02:00 +17°C° 0 mm 2 mps 744 mmHg 88%
03:00 +17°C° 0 mm 2 mps 744 mmHg 89%
04:00 +17°C° 0 mm 2 mps 744 mmHg 90%
05:00 +16°C° 0 mm 2 mps 744 mmHg 91%
06:00 +17°C° 0 mm 2 mps 744 mmHg 88%
07:00 +18°C° 0 mm 2 mps 744 mmHg 84%
08:00 +19°C° 0 mm 3 mps 744 mmHg 81%
09:00 +20°C° 0 mm 3 mps 744 mmHg 75%
10:00 +21°C° 0 mm 4 mps 745 mmHg 68%
11:00 +22°C° 0 mm 4 mps 745 mmHg 61%
12:00 +22°C° 0 mm 4 mps 745 mmHg 59%
13:00 +23°C° 0 mm 5 mps 745 mmHg 56%
14:00 +23°C° 0 mm 5 mps 745 mmHg 54%
15:00 +22°C° 0 mm 5 mps 745 mmHg 56%
16:00 +21°C° 0 mm 5 mps 745 mmHg 58%
17:00 +21°C° 0 mm 5 mps 745 mmHg 60%
18:00 +19°C° 0 mm 5 mps 745 mmHg 65%
19:00 +17°C° 0 mm 4 mps 745 mmHg 70%
20:00 +15°C° 0 mm 4 mps 745 mmHg 75%
21:00 +14°C° 0 mm 3 mps 745 mmHg 77%
22:00 +13°C° 0 mm 3 mps 746 mmHg 80%
23:00 +13°C° 0 mm 3 mps 746 mmHg 82%

12 August, Wednesday

Time Temperature Precipitation Wind Pressure Humidity
00:00 +12°C° 0 mm 3 mps 746 mmHg 83%
01:00 +12°C° 0 mm 2 mps 746 mmHg 85%
02:00 +10°C° 0 mm 2 mps 746 mmHg 86%
03:00 +10°C° 0 mm 2 mps 746 mmHg 86%
04:00 +10°C° 0 mm 2 mps 747 mmHg 86%
05:00 +9°C° 0 mm 2 mps 747 mmHg 86%
06:00 +11°C° 0 mm 3 mps 747 mmHg 80%
07:00 +12°C° 0 mm 3 mps 747 mmHg 73%
08:00 +14°C° 0 mm 4 mps 747 mmHg 67%
09:00 +15°C° 0 mm 4 mps 747 mmHg 63%
10:00 +17°C° 0 mm 4 mps 747 mmHg 60%
11:00 +18°C° 0 mm 4 mps 748 mmHg 56%
12:00 +18°C° 0 mm 4 mps 747 mmHg 56%
13:00 +18°C° 0 mm 4 mps 747 mmHg 55%
14:00 +19°C° 0 mm 3 mps 747 mmHg 55%
15:00 +19°C° 0 mm 3 mps 747 mmHg 57%
16:00 +18°C° 0 mm 3 mps 747 mmHg 59%
17:00 +18°C° 0 mm 3 mps 747 mmHg 61%
18:00 +17°C° 0 mm 3 mps 747 mmHg 66%
19:00 +15°C° 0 mm 2 mps 747 mmHg 72%
20:00 +13°C° 0 mm 2 mps 747 mmHg 77%
21:00 +13°C° 0 mm 2 mps 747 mmHg 78%
22:00 +12°C° 0 mm 2 mps 747 mmHg 80%
23:00 +12°C° 0 mm 1 mps 747 mmHg 81%

13 August, Thursday

Time Temperature Precipitation Wind Pressure Humidity
00:00 +11°C° 0 mm 1 mps 747 mmHg 83%
01:00 +11°C° 0 mm 1 mps 747 mmHg 85%
02:00 +11°C° 0 mm 1 mps 747 mmHg 87%
03:00 +10°C° 0 mm 1 mps 747 mmHg 87%
04:00 +10°C° 0 mm 1 mps 747 mmHg 88%
05:00 +10°C° 0 mm 1 mps 747 mmHg 88%
06:00 +12°C° 0 mm 1 mps 747 mmHg 81%
07:00 +13°C° 0 mm 0 mps 747 mmHg 75%
08:00 +15°C° 0 mm 0 mps 747 mmHg 68%
09:00 +18°C° 0 mm 1 mps 747 mmHg 63%
10:00 +19°C° 0 mm 1 mps 747 mmHg 59%
11:00 +21°C° 0 mm 1 mps 747 mmHg 54%
12:00 +21°C° 0 mm 1 mps 746 mmHg 53%
13:00 +21°C° 0 mm 1 mps 746 mmHg 51%
14:00 +22°C° 0 mm 1 mps 746 mmHg 50%
15:00 +20°C° 0 mm 2 mps 745 mmHg 53%
16:00 +20°C° 0 mm 2 mps 745 mmHg 56%
17:00 +20°C° 0 mm 2 mps 745 mmHg 58%
18:00 +18°C° 0 mm 2 mps 745 mmHg 66%
19:00 +16°C° 0 mm 1 mps 745 mmHg 73%
20:00 +15°C° 0 mm 1 mps 745 mmHg 80%
21:00 +14°C° 0 mm 1 mps 745 mmHg 82%
22:00 +14°C° 0 mm 1 mps 745 mmHg 84%
23:00 +13°C° 0 mm 1 mps 745 mmHg 86%

14 August, Friday

Time Temperature Precipitation Wind Pressure Humidity
00:00 +13°C° 0 mm 1 mps 745 mmHg 87%
01:00 +13°C° 0 mm 1 mps 745 mmHg 88%
02:00 +12°C° 0 mm 1 mps 745 mmHg 89%
03:00 +12°C° 0 mm 1 mps 745 mmHg 89%
04:00 +12°C° 0 mm 1 mps 745 mmHg 90%
05:00 +11°C° 0 mm 1 mps 745 mmHg 91%
06:00 +13°C° 0 mm 1 mps 745 mmHg 85%
07:00 +15°C° 0 mm 2 mps 745 mmHg 80%
08:00 +16°C° 0 mm 2 mps 745 mmHg 74%
09:00 +18°C° 0 mm 2 mps 745 mmHg 69%
10:00 +19°C° 0 mm 2 mps 745 mmHg 65%
11:00 +21°C° 0 mm 2 mps 745 mmHg 60%
12:00 +21°C° 0 mm 3 mps 745 mmHg 58%
13:00 +22°C° 0 mm 3 mps 744 mmHg 57%
14:00 +24°C° 0 mm 3 mps 744 mmHg 55%
15:00 +22°C° 0 mm 3 mps 744 mmHg 56%
16:00 +22°C° 0 mm 3 mps 744 mmHg 57%
17:00 +22°C° 0 mm 3 mps 744 mmHg 58%
18:00 +21°C° 0 mm 2 mps 744 mmHg 65%
19:00 +19°C° 0 mm 2 mps 743 mmHg 72%
20:00 +17°C° 0 mm 2 mps 743 mmHg 79%
21:00 +17°C° 0 mm 2 mps 743 mmHg 81%
22:00 +16°C° 0 mm 2 mps 743 mmHg 84%
23:00 +16°C° 0 mm 2 mps 743 mmHg 86%
Show more